User: anonymous   Login
Location: Unspecified
(0.0000°N, 0.0000°E)
Time: 09:47:20
(UTC+02:00)
Language:

Cosmos 2251 - Orbit

View from above orbital plane
View from above orbital plane
View from above satellite
View from above satellite

Ground track
Ground track

The orbit data is extracted from the following two-line orbital elements,

1 22675U 93036A   15247.51518075  .00000022  00000-0  17608-4 0  9994
2 22675  74.0411 325.3719 0026060 244.2596 212.3696 14.32440243160729
Epoch (UTC): 04 September 2015 12:21:51
Eccentricity: 0.0026060
inclination: 74.0411°
perigee height: 765 km
apogee height: 802 km
right ascension of ascending node: 325.3719°
argument of perigee: 244.2596°
revolutions per day: 14.32440243
mean anomaly at epoch: 212.3696°
orbit number at epoch: 16072

The dashed part of the orbit path shows where the satellite is in the earth's shadow,  

DLR